Regional Weather Roundup
Issued by NWS

Home | Current Version | Previous Version | Graphics & Text | Print | Product List | Glossary On
Versions: 1 2 3 4 5 6 7 8 9 10 11 12 13 14 15 16 17 18 19 20 21 22 23 24 25 26 27 28 29 30 31 32 33 34 35 36 37 38 39 40 41 42 43 44 45 46 47 48 49 50
150
ASUS43 KLMK 170502
RWRKY
KENTUCKY REGIONAL WEATHER ROUNDUP
NATIONAL WEATHER SERVICE LOUISVILLE KY
1200 AM EST SUN DEC 17 2017

NOTE "FAIR" INDICATES FEW OR NO CLOUDS BELOW 12,000 FEET
WITH NO SIGNIFICANT WEATHER AND/OR OBSTRUCTIONS TO VISIBILITY.

KYZ001>023-026-027-061>063-070>075-170600-
WESTERN AND SOUTH CENTRAL KENTUCKY

CITY           SKY/WX    TMP DP  RH WIND       PRES   REMARKS
PADUCAH        PTCLDY    43  29  57 S3        30.17R
HENDERSON      CLOUDY    40  29  64 S7        30.17S
OWENSBORO      CLOUDY    39  30  70 S8        30.20R WCI  33
HOPKINSVILLE   MOCLDY    44  28  53 S7        30.20R
BOWLING GREEN  CLOUDY    43  31  62 S7        30.23R
GLASGOW        NOT AVBL
$$

KYZ024-025-028>034-038-045-046-053-170600-
NORTH CENTRAL KENTUCKY

CITY           SKY/WX    TMP DP  RH WIND       PRES   REMARKS
LOUISVILLE/SDF CLOUDY    44  29  55 S7        30.20R
LOUISVILLE/LOU CLOUDY    40  30  67 S5        30.20R
FORT KNOX      PTCLDY    38  28  68 S6        30.18R WCI  33
$$

KYZ035>037-039>044-047>052-055>060-089>105-170600-
NORTHEAST KENTUCKY

CITY           SKY/WX    TMP DP  RH WIND       PRES   REMARKS
LEXINGTON      CLOUDY    37  28  70 S10       30.21R WCI  30
COVINGTON      PTCLDY    40  30  67 SW7       30.17R
FRANKFORT      CLOUDY    39  27  62 SW9       30.20R WCI  33
$$

KYZ054-064>069-076>088-106>120-170600-
SOUTHEAST KENTUCKY

CITY           SKY/WX    TMP DP  RH WIND       PRES   REMARKS
JACKSON        CLOUDY    38  26  62 SW5       30.23R WCI  34
LONDON         CLOUDY    32  25  75 CALM      30.23S
SOMERSET       NOT AVBL
MIDDLESBORO    CLOUDY    29  26  90 CALM      30.28R
MONTICELLO     MOCLDY    30  27  88 N8        30.26R WCI  22
$$





USA.gov is the U.S. government's official web portal to all federal, state and local government web resources and services.